Vorticity
4 4 4 3 4 5 4 4 5 4 4 6 4 5 6 7 7 8 10 7 8 9 7 7 7 7 7 7 6 7 3 22 18 11 8 12 8 5 4 6 7 5 5
4 4 2 4 6 7 8 7 6 6 6 6 6 5 4 5 7 7 5 9 8 9 8 7 9 7 5 7 9 11 10 8 2 19 19 15 11 3 4 6 5 7 5
4 3 2 4 9 10 8 8 9 9 9 8 7 6 6 3 4 6 7 6 6 6 6 7 7 6 6 5 6 6 5 6 7 7 14 13 12 7 3 1 6 6 7
4 3 4 9 10 8 8 7 7 7 5 6 9 10 7 6 4 4 3 4 7 7 8 7 7 7 8 8 7 4 6 5 5 6 13 8 1 -5 4 23 18 10 8
2 6 8 6 9 9 7 8 8 9 8 4 11 6 9 8 6 5 4 4 2 2 2 4 7 6 7 5 5 5 8 8 7 8 7 9 9 8 10 9 53 9 6
7 7 7 6 6 6 7 7 6 16 13 6 11 9 6 9 8 7 6 5 5 4 4 4 3 4 3 4 5 5 5 5 7 9 7 7 5 4 5 10 -1 52 5
7 3 10 5 5 7 8 7 13 12 19 19 22 15 12 12 11 10 9 8 5 7 7 6 5 6 4 4 5 3 4 4 5 7 8 9 6 4 5 4 4 4 32
6 5 4 9 7 9 6 7 9 6 12 16 18 19 13 10 10 10 10 12 12 11 10 10 9 9 8 6 7 8 9 9 6 4 6 8 7 9 7 5 6 8 8
1 5 2 8 9 11 6 5 9 5 4 6 14 17 15 12 9 10 11 10 9 11 10 9 8 6 6 8 8 11 11 11 12 10 7 7 7 7 4 4 4 3 5
3 3 4 5 8 8 6 6 9 6 4 3 3 2 4 8 8 6 6 8 9 9 10 12 12 12 12 12 10 6 6 7 9 7 8 9 8 7 7 6 6 6 7
3 2 3 3 7 8 8 7 6 6 9 8 7 6 5 3 4 5 5 4 3 6 7 8 8 10 12 12 9 9 8 9 7 10 11 9 9 9 10 10 9 7 6
3 2 3 5 5 8 6 7 6 5 9 7 7 7 6 6 6 6 6 8 5 3 8 9 9 8 9 5 6 6 6 7 9 6 7 10 11 11 9 7 8 7 10
4 3 3 3 4 9 8 7 7 6 9 5 3 6 5 7 8 8 10 13 13 5 11 10 5 3 2 3 6 7 9 11 9 9 7 12 6 3 5 6 8 10 9
6 5 3 3 3 2 15 9 5 6 7 6 4 4 3 4 2 7 15 17 9 6 11 4 4 6 6 7 8 7 11 3 4 18 6 11 13 12 6 7 9 12 8
5 5 6 5 4 4 3 13 7 6 5 4 6 4 5 13 6 9 9 16 11 13 6 2 2 -0 5 7 5 5 2 12 14 18 8 2 6 6 6 6 9 11 15
5 4 5 5 5 5 5 9 12 3 6 5 5 3 4 1 6 7 12 0 2 2 2 3 2 3 8 7 6 7 8 9 5 12 -0 2 3 2 2 1 2 8 17
7 5 5 4 5 6 7 3 14 9 9 5 5 4 5 4 4 7 12 7 2 4 -2 2 3 8 6 5 5 4 7 7 5 6 5 5 9 4 4 6 6 12 15
13 10 7 5 5 6 8 10 6 16 6 4 5 5 3 4 1 2 15 10 -1 3 5 4 5 3 4 4 8 6 8 8 7 4 4 7 2 5 8 13 15 16 16
16 18 21 17 13 12 11 10 7 13 6 5 5 4 3 6 -0 6 12 5 11 8 2 7 6 7 5 6 9 5 9 8 7 6 9 4 10 9 9 13 13 12 3
13 11 10 10 17 27 21 15 15 12 12 5 3 5 4 2 8 5 -1 12 5 6 5 3 3 5 9 8 8 6 6 6 9 7 9 4 9 8 8 10 13 13 10
8 8 -0 5 11 10 14 24 20 16 11 9 4 5 5 2 3 13 -0 9 9 13 9 -1 5 4 2 6 5 24 5 10 7 8 8 5 3 8 10 8 9 9 10
4 -3 1 -2 0 8 12 14 9 8 11 8 7 8 3 4 6 6 -3 -5 2 -11 -0 12 8 8 6 -4 6 3 25 20 10 11 6 7 6 9 11 12 8 11 10
7 3 3 4 0 2 3 8 13 9 11 9 10 8 4 6 3 -1 0 -2 0 8 -1 6 8 3 3 -3 4 9 9 21 14 10 8 8 6 13 13 11 8 10 10
12 10 2 2 2 2 6 3 5 6 6 11 14 15 11 3 3 0 -2 -2 -3 2 2 4 3 1 -4 -2 2 2 8 11 12 9 9 8 10 10 9 8 12 12 14
5 8 14 5 4 1 -0 6 -5 6 15 5 9 12 14 11 8 7 6 5 5 4 0 -0 -1 2 2 4 3 -2 -2 11 13 10 11 6 9 8 10 9 8 11 16
8 6 7 10 1 6 8 2 3 -4 -13 15 10 9 6 8 12 11 11 1 3 -3 4 -3 -0 7 4 4 -0 1 -3 7 7 11 12 5 10 10 12 7 8 8 14
Height
5929 5928 5927 5926 5926 5926 5925 5925 5924 5923 5922 5922 5922 5921 5921 5921 5920 5919 5918 5917 5917 5917 5917 5917 5918 5917 5917 5917 5916 5915 5913 5910 5909 5909 5908 5907 5907 5908 5907 5906 5905 5904 5904
5930 5931 5929 5929 5928 5928 5926 5926 5924 5924 5924 5924 5923 5922 5922 5922 5922 5921 5919 5919 5919 5919 5919 5919 5919 5919 5918 5918 5916 5915 5914 5912 5910 5908 5907 5906 5906 5906 5906 5906 5905 5905 5904
5933 5932 5932 5930 5930 5928 5927 5926 5926 5926 5925 5924 5923 5923 5922 5922 5922 5922 5922 5921 5921 5921 5920 5920 5920 5920 5919 5918 5916 5914 5913 5912 5911 5909 5907 5906 5906 5906 5905 5904 5904 5903 5903
5935 5935 5933 5931 5931 5929 5928 5927 5927 5926 5925 5924 5923 5923 5923 5923 5923 5922 5922 5923 5923 5923 5922 5922 5921 5920 5917 5917 5915 5914 5913 5912 5911 5909 5908 5907 5906 5906 5904 5901 5900 5900 5901
5935 5935 5934 5933 5933 5932 5930 5928 5927 5926 5925 5923 5922 5923 5923 5923 5923 5923 5923 5923 5923 5923 5922 5922 5920 5918 5918 5917 5916 5915 5914 5913 5911 5909 5908 5907 5906 5905 5904 5900 5896 5896 5898
5936 5935 5934 5933 5932 5931 5931 5929 5927 5926 5924 5923 5922 5922 5922 5923 5923 5923 5923 5923 5921 5920 5921 5921 5920 5918 5916 5916 5916 5916 5914 5912 5910 5908 5906 5905 5904 5903 5901 5899 5897 5895 5894
5936 5936 5935 5934 5933 5932 5932 5929 5929 5927 5924 5922 5921 5922 5922 5923 5923 5923 5923 5923 5922 5922 5922 5920 5919 5918 5918 5917 5917 5914 5913 5911 5909 5908 5906 5904 5902 5900 5899 5898 5896 5895 5896
5936 5936 5936 5936 5934 5934 5933 5931 5930 5928 5927 5924 5922 5922 5922 5923 5923 5923 5922 5923 5923 5923 5922 5921 5918 5919 5918 5918 5916 5913 5911 5909 5907 5905 5904 5903 5903 5901 5898 5895 5894 5894 5894
5936 5936 5936 5936 5935 5934 5933 5932 5931 5930 5930 5928 5926 5925 5924 5924 5923 5923 5923 5924 5924 5923 5922 5919 5918 5917 5917 5915 5913 5913 5911 5908 5907 5905 5901 5899 5898 5897 5896 5895 5894 5893 5892
5936 5936 5936 5936 5935 5934 5934 5932 5931 5930 5930 5930 5930 5929 5927 5926 5925 5925 5926 5926 5924 5924 5922 5920 5919 5917 5916 5916 5914 5912 5908 5906 5903 5901 5899 5898 5896 5895 5894 5893 5891 5889 5889
5935 5935 5935 5935 5935 5934 5935 5935 5933 5932 5931 5930 5930 5930 5929 5927 5926 5927 5927 5926 5926 5925 5921 5919 5916 5916 5915 5913 5911 5908 5907 5906 5902 5901 5897 5895 5894 5892 5891 5890 5889 5887 5885
5935 5935 5935 5935 5935 5933 5933 5934 5934 5933 5932 5931 5930 5930 5929 5928 5927 5927 5927 5927 5927 5923 5921 5920 5919 5917 5916 5912 5911 5908 5905 5902 5901 5899 5897 5894 5891 5888 5886 5884 5882 5881 5881
5933 5934 5935 5935 5935 5935 5934 5934 5934 5934 5933 5933 5932 5930 5929 5928 5928 5928 5927 5927 5925 5923 5922 5920 5919 5917 5913 5911 5909 5907 5903 5902 5899 5896 5895 5892 5889 5886 5882 5880 5878 5875 5874
5931 5932 5933 5933 5933 5934 5934 5934 5934 5934 5933 5932 5932 5930 5929 5928 5928 5928 5926 5925 5924 5923 5922 5920 5918 5916 5913 5910 5907 5905 5901 5899 5895 5893 5891 5889 5886 5882 5881 5878 5876 5873 5869
5928 5928 5930 5931 5932 5932 5932 5933 5934 5933 5932 5931 5931 5930 5930 5930 5930 5928 5925 5923 5922 5921 5920 5918 5916 5913 5911 5909 5906 5903 5900 5896 5893 5891 5888 5884 5880 5879 5878 5873 5869 5865 5862
5925 5926 5927 5928 5929 5930 5930 5931 5932 5932 5931 5930 5929 5929 5928 5928 5929 5927 5925 5923 5920 5919 5918 5916 5913 5911 5909 5908 5904 5901 5898 5895 5893 5887 5886 5882 5878 5874 5870 5865 5859 5855 5852
5921 5922 5923 5924 5925 5926 5927 5928 5928 5929 5929 5929 5928 5927 5927 5927 5927 5926 5924 5922 5920 5918 5916 5914 5912 5909 5907 5905 5903 5900 5896 5892 5888 5886 5882 5878 5876 5871 5864 5859 5854 5848 5844
5916 5917 5919 5920 5920 5921 5922 5924 5924 5926 5927 5926 5926 5925 5925 5924 5925 5924 5922 5921 5919 5917 5915 5912 5908 5908 5906 5904 5902 5897 5893 5888 5884 5883 5879 5875 5871 5864 5859 5853 5847 5840 5835
5910 5912 5914 5915 5915 5915 5917 5918 5920 5921 5923 5923 5923 5923 5923 5922 5922 5922 5920 5919 5918 5916 5912 5909 5906 5906 5902 5902 5899 5894 5890 5883 5880 5877 5876 5872 5866 5860 5853 5847 5839 5834 5828
5907 5909 5910 5911 5911 5912 5913 5914 5916 5918 5919 5920 5920 5920 5920 5919 5918 5918 5917 5916 5915 5912 5910 5905 5902 5901 5899 5897 5893 5888 5885 5881 5879 5874 5870 5864 5861 5853 5847 5841 5835 5829 5822
5905 5906 5907 5908 5909 5909 5909 5910 5912 5913 5914 5915 5916 5915 5915 5914 5914 5913 5913 5912 5910 5907 5904 5902 5899 5896 5893 5891 5888 5884 5879 5875 5870 5868 5863 5857 5854 5849 5844 5838 5833 5824 5816
5903 5904 5905 5906 5906 5906 5906 5906 5906 5907 5907 5907 5908 5909 5909 5909 5909 5909 5908 5906 5905 5903 5900 5896 5894 5892 5889 5885 5881 5876 5871 5869 5865 5862 5858 5852 5848 5843 5836 5830 5827 5819 5811
5899 5900 5901 5902 5902 5903 5903 5902 5902 5902 5902 5903 5903 5904 5904 5903 5903 5902 5901 5900 5900 5899 5895 5892 5889 5885 5882 5880 5875 5868 5865 5862 5857 5854 5852 5846 5841 5836 5829 5822 5818 5810 5802
5893 5894 5895 5896 5897 5899 5900 5899 5898 5897 5898 5897 5897 5898 5897 5896 5897 5897 5894 5893 5893 5891 5889 5885 5883 5881 5876 5872 5868 5864 5859 5856 5851 5849 5845 5839 5833 5828 5825 5819 5812 5805 5795
5887 5889 5890 5891 5892 5894 5895 5894 5894 5893 5894 5895 5892 5889 5889 5889 5888 5889 5887 5884 5884 5882 5880 5878 5874 5873 5870 5867 5864 5859 5854 5849 5845 5842 5840 5831 5826 5822 5819 5814 5804 5799 5791
5882 5881 5883 5885 5887 5889 5889 5889 5888 5887 5886 5887 5886 5884 5883 5882 5880 5878 5878 5875 5874 5874 5869 5869 5865 5863 5860 5857 5855 5851 5847 5843 5838 5834 5831 5824 5819 5816 5813 5807 5799 5791 5784